| time (UTC) | temp F | wind direction | speed knots | gust knots | rain 1hr in | rain 24hr in | rain mn in | humidity % | barometer mb |
| 20260506051024 | 54 | 304 | 0.0 | 1.7 | 0.00 | 0.05 | 0.00 | 90 | 1007.5 |
| 20260506045024 | 54 | 271 | 0.0 | 0.9 | 0.00 | 0.05 | 0.00 | 90 | 1007.5 |
| 20260506044024 | 54 | 272 | 0.0 | 0.9 | 0.00 | 0.05 | 0.00 | 90 | 1007.5 |
| 20260506043024 | 54 | 320 | 0.0 | 0.9 | 0.00 | 0.05 | 0.00 | 90 | 1007.5 |
| 20260506042024 | 54 | 278 | 0.0 | 0.9 | 0.00 | 0.05 | 0.00 | 90 | 1007.5 |
| 20260506041024 | 54 | 291 | 0.0 | 0.9 | 0.00 | 0.05 | 0.00 | 90 | 1007.5 |
| 20260506040024 | 54 | 155 | 0.0 | 0.9 | 0.00 | 0.05 | 0.00 | 90 | 1007.4 |
| 20260506035024 | 54 | 302 | 0.0 | 1.7 | 0.00 | 0.05 | 0.00 | 90 | 1007.4 |
| 20260506034024 | 54 | 129 | 0.0 | 0.9 | 0.00 | 0.05 | 0.00 | 91 | 1007.6 |
| 20260506033024 | 55 | 210 | 0.0 | 1.7 | 0.00 | 0.05 | 0.00 | 91 | 1007.7 |
| 20260506032024 | 55 | 236 | 0.0 | 0.9 | 0.00 | 0.05 | 0.00 | 91 | 1007.6 |
| 20260506031024 | 55 | 297 | 0.0 | 1.7 | 0.00 | 0.05 | 0.00 | 91 | 1007.6 |
| 20260506030024 | 55 | 115 | 0.0 | 2.6 | 0.00 | 0.05 | 0.00 | 92 | 1007.9 |
| 20260506025024 | 55 | 291 | 0.0 | 0.9 | 0.00 | 0.05 | 0.00 | 92 | 1007.9 |
| 20260506024024 | 55 | 269 | 0.0 | 1.7 | 0.00 | 0.05 | 0.00 | 92 | 1008.0 |
| 20260506023024 | 55 | 288 | 0.0 | 1.7 | 0.00 | 0.05 | 0.00 | 92 | 1007.9 |
| 20260506022024 | 55 | 141 | 0.0 | 0.9 | 0.00 | 0.05 | 0.00 | 92 | 1008.0 |
| 20260506021024 | 55 | 131 | 0.0 | 0.9 | 0.00 | 0.05 | 0.00 | 92 | 1007.9 |
| 20260506020235 | 55 | 228 | 0.0 | 0.9 | 0.00 | 0.05 | 0.00 | 93 | 1008.0 |
| 20260506020024 | 55 | 228 | 0.0 | 0.9 | 0.00 | 0.05 | 0.00 | 93 | 1008.0 |
| 20260506015024 | 55 | 4 | 0.0 | 0.9 | 0.00 | 0.05 | 0.00 | 92 | 1007.9 |
| 20260506014024 | 55 | 312 | 0.0 | 1.7 | 0.00 | 0.05 | 0.00 | 93 | 1008.0 |
| 20260506013024 | 55 | 295 | 0.0 | 0.9 | 0.00 | 0.05 | 0.00 | 93 | 1008.2 |
| 20260506012024 | 55 | 278 | 0.0 | 0.9 | 0.00 | 0.05 | 0.00 | 93 | 1008.0 |
| 20260506011024 | 56 | 283 | 0.0 | 0.9 | 0.00 | 0.05 | 0.00 | 93 | 1008.1 |
| 20260506010024 | 56 | 277 | 0.0 | 0.9 | 0.00 | 0.05 | 0.00 | 93 | 1008.3 |
| 20260506005024 | 56 | 169 | 0.0 | 0.9 | 0.00 | 0.05 | 0.00 | 93 | 1008.4 |
| 20260506004024 | 56 | 134 | 0.0 | 0.9 | 0.00 | 0.05 | 0.00 | 93 | 1008.4 |
| 20260506003024 | 56 | 289 | 0.0 | 0.9 | 0.00 | 0.05 | 0.00 | 93 | 1008.4 |
| 20260506002024 | 56 | 203 | 0.0 | 2.6 | 0.00 | 0.05 | 0.00 | 93 | 1008.6 |
| 20260506001024 | 56 | 176 | 0.0 | 1.7 | 0.00 | 0.05 | 0.00 | 93 | 1008.6 |
| 20260506000024 | 56 | 144 | 0.0 | 0.9 | 0.00 | 0.05 | 0.00 | 93 | 1008.6 |
| 20260505235025 | 56 | 262 | 0.0 | 0.9 | 0.00 | 0.05 | 0.00 | 92 | 1008.9 |
| 20260505234025 | 56 | 262 | 0.0 | 0.9 | 0.00 | 0.05 | 0.00 | 92 | 1008.8 |
| 20260505233025 | 57 | 266 | 0.0 | 1.7 | 0.00 | 0.05 | 0.00 | 92 | 1008.9 |
| 20260505232025 | 57 | 250 | 0.0 | 0.9 | 0.00 | 0.05 | 0.00 | 92 | 1008.9 |
| 20260505231025 | 57 | 249 | 0.0 | 0.9 | 0.00 | 0.05 | 0.00 | 92 | 1009.0 |
| 20260505230025 | 57 | 219 | 0.0 | 1.7 | 0.00 | 0.05 | 0.00 | 92 | 1008.8 |
| 20260505225025 | 57 | 115 | 0.0 | 0.9 | 0.00 | 0.05 | 0.00 | 92 | 1008.8 |
| 20260505224025 | 57 | 113 | 0.0 | 2.6 | 0.00 | 0.05 | 0.00 | 92 | 1008.9 |
| 20260505223025 | 57 | 161 | 0.0 | 0.9 | 0.00 | 0.05 | 0.00 | 92 | 1008.9 |
| 20260505222025 | 57 | 323 | 0.0 | 0.9 | 0.00 | 0.05 | 0.00 | 92 | 1008.8 |
| 20260505221025 | 57 | 321 | 0.0 | 0.0 | 0.00 | 0.05 | 0.05 | 92 | 1008.7 |
| 20260505220025 | 57 | 321 | 0.0 | 0.0 | 0.00 | 0.05 | 0.05 | 92 | 1008.5 |
| 20260505215025 | 57 | 296 | 0.0 | 0.9 | 0.00 | 0.05 | 0.05 | 92 | 1008.7 |
| 20260505214025 | 57 | 296 | 0.0 | 0.0 | 0.00 | 0.05 | 0.05 | 92 | 1008.7 |
| 20260505213025 | 57 | 297 | 0.0 | 0.0 | 0.00 | 0.05 | 0.05 | 92 | 1008.7 |
| 20260505212025 | 57 | 287 | 0.0 | 0.9 | 0.00 | 0.05 | 0.05 | 91 | 1008.7 |
| 20260505211025 | 57 | 293 | 0.0 | 0.9 | 0.00 | 0.05 | 0.05 | 91 | 1008.8 |
| 20260505210025 | 57 | 210 | 0.0 | 0.0 | 0.01 | 0.05 | 0.05 | 91 | 1008.9 |
| 20260505205025 | 57 | 210 | 0.0 | 0.9 | 0.02 | 0.05 | 0.05 | 90 | 1008.9 |
| 20260505204025 | 57 | 296 | 0.0 | 2.6 | 0.02 | 0.05 | 0.05 | 90 | 1008.8 |
| 20260505203025 | 58 | 291 | 0.0 | 2.6 | 0.03 | 0.05 | 0.05 | 89 | 1008.8 |
| 20260505202025 | 59 | 136 | 0.9 | 4.3 | 0.03 | 0.05 | 0.05 | 88 | 1008.7 |
| 20260505201025 | 59 | 214 | 0.0 | 0.9 | 0.03 | 0.05 | 0.05 | 88 | 1008.6 |
| 20260505200025 | 59 | 124 | 0.0 | 1.7 | 0.02 | 0.04 | 0.04 | 86 | 1008.5 |
| 20260505195025 | 59 | 276 | 0.0 | 0.9 | 0.01 | 0.03 | 0.03 | 85 | 1008.5 |
| 20260505194025 | 60 | 256 | 0.0 | 0.9 | 0.01 | 0.03 | 0.03 | 84 | 1008.2 |
| 20260505193025 | 60 | 256 | 0.0 | 0.0 | 0.00 | 0.02 | 0.02 | 83 | 1008.2 |
| 20260505192025 | 60 | 256 | 0.0 | 0.9 | 0.00 | 0.02 | 0.02 | 83 | 1008.2 |
| 20260505191025 | 60 | 256 | 0.0 | 0.9 | 0.00 | 0.02 | 0.02 | 83 | 1008.3 |
| 20260505190025 | 60 | 256 | 0.0 | 0.9 | 0.00 | 0.02 | 0.02 | 83 | 1008.3 |
| 20260505185025 | 61 | 256 | 0.0 | 0.9 | 0.00 | 0.02 | 0.02 | 82 | 1008.1 |
| 20260505184025 | 61 | 256 | 0.0 | 0.9 | 0.00 | 0.02 | 0.02 | 81 | 1008.0 |
| 20260505183026 | 62 | 256 | 0.0 | 0.0 | 0.00 | 0.02 | 0.02 | 80 | 1008.1 |
| 20260505182026 | 62 | 256 | 0.0 | 0.0 | 0.00 | 0.02 | 0.02 | 79 | 1008.1 |
| 20260505181026 | 62 | 256 | 0.0 | 0.9 | 0.00 | 0.02 | 0.02 | 77 | 1008.1 |
| 20260505180026 | 63 | 256 | 0.0 | 0.9 | 0.00 | 0.02 | 0.02 | 77 | 1008.0 |
| 20260505175026 | 63 | 256 | 0.0 | 0.9 | 0.00 | 0.02 | 0.02 | 77 | 1008.1 |
| 20260505174026 | 63 | 256 | 0.0 | 0.0 | 0.00 | 0.02 | 0.02 | 77 | 1008.0 |
| 20260505173026 | 63 | 256 | 0.0 | 0.0 | 0.00 | 0.02 | 0.02 | 78 | 1008.2 |
| 20260505172026 | 63 | 256 | 0.0 | 0.9 | 0.00 | 0.02 | 0.02 | 78 | 1008.1 |
| 20260505171026 | 62 | 256 | 0.0 | 0.0 | 0.00 | 0.02 | 0.02 | 78 | 1008.1 |
| 20260505170026 | 62 | 256 | 0.0 | 0.0 | 0.00 | 0.02 | 0.02 | 78 | 1008.1 |
| 20260505165026 | 62 | 256 | 0.0 | 0.0 | 0.00 | 0.02 | 0.02 | 77 | 1008.3 |
| 20260505164026 | 63 | 256 | 0.0 | 0.9 | 0.00 | 0.02 | 0.02 | 79 | 1008.3 |
| 20260505163026 | 63 | 256 | 0.0 | 0.0 | 0.00 | 0.02 | 0.02 | 80 | 1008.3 |
| 20260505162026 | 63 | 256 | 0.0 | 0.0 | 0.00 | 0.02 | 0.02 | 80 | 1008.5 |
| 20260505161026 | 62 | 256 | 0.0 | 0.0 | 0.00 | 0.02 | 0.02 | 81 | 1008.5 |
| 20260505153026 | 61 | 256 | 0.0 | 0.0 | 0.00 | 0.02 | 0.02 | 84 | 1008.4 |
| 20260505152026 | 61 | 256 | 0.0 | 0.0 | 0.00 | 0.02 | 0.02 | 83 | 1008.5 |
| 20260505151026 | 61 | 256 | 0.0 | 0.0 | 0.00 | 0.02 | 0.02 | 84 | 1008.6 |
| 20260505125027 | 68 | 299 | 0.0 | 0.0 | 0.00 | 0.00 | 0.00 | 59 | 1009.0 |
| 20260505124027 | 68 | 297 | 0.0 | 0.9 | 0.00 | 0.00 | 0.00 | 58 | 1009.0 |
| 20260505123027 | 68 | 248 | 0.0 | 0.9 | 0.00 | 0.00 | 0.00 | 57 | 1009.1 |
| 20260505122027 | 68 | 283 | 0.0 | 0.9 | 0.00 | 0.00 | 0.00 | 56 | 1009.0 |
| 20260505121027 | 69 | 162 | 0.0 | 0.9 | 0.00 | 0.00 | 0.00 | 55 | 1008.9 |
| 20260505120027 | 69 | 252 | 0.0 | 0.9 | 0.00 | 0.00 | 0.00 | 56 | 1009.0 |
| 20260505115027 | 68 | 247 | 0.0 | 0.9 | 0.00 | 0.00 | 0.00 | 57 | 1009.1 |
| 20260505114027 | 68 | 269 | 0.0 | 0.9 | 0.00 | 0.00 | 0.00 | 58 | 1009.0 |
| 20260505113027 | 68 | 262 | 0.0 | 0.9 | 0.00 | 0.00 | 0.00 | 57 | 1009.2 |
| 20260505112027 | 68 | 264 | 0.0 | 1.7 | 0.00 | 0.01 | 0.00 | 57 | 1009.2 |
| 20260505111027 | 68 | 264 | 0.0 | 0.9 | 0.00 | 0.01 | 0.00 | 58 | 1009.4 |
| 20260505102149 | 69 | 236 | 0.0 | 0.9 | 0.00 | 0.01 | 0.00 | 60 | 1009.8 |
| 20260505102115 | 69 | 236 | 0.0 | 0.9 | 0.00 | 0.01 | 0.00 | 60 | 1009.8 |
| 20260505102027 | 69 | 236 | 0.0 | 0.9 | 0.00 | 0.01 | 0.00 | 60 | 1009.8 |
| 20260505101027 | 68 | 258 | 0.0 | 0.9 | 0.00 | 0.01 | 0.00 | 62 | 1009.9 |
| 20260505100027 | 67 | 258 | 0.0 | 0.9 | 0.00 | 0.01 | 0.00 | 62 | 1010.0 |
| 20260505095237 | 67 | 257 | 0.0 | 0.9 | 0.00 | 0.01 | 0.00 | 64 | 1009.9 |
| 20260505095027 | 67 | 257 | 0.0 | 0.9 | 0.00 | 0.01 | 0.00 | 64 | 1009.9 |
| 20260505094027 | 67 | 261 | 0.0 | 0.9 | 0.00 | 0.01 | 0.00 | 63 | 1009.9 |
| 20260505093027 | 67 | 216 | 0.0 | 0.9 | 0.00 | 0.01 | 0.00 | 63 | 1009.9 |
| 20260505092027 | 66 | 213 | 0.0 | 0.9 | 0.00 | 0.01 | 0.00 | 65 | 1010.0 |
| 20260505091027 | 65 | 251 | 0.0 | 0.9 | 0.00 | 0.01 | 0.00 | 67 | 1010.1 |
| 20260505090027 | 65 | 259 | 0.0 | 0.9 | 0.00 | 0.01 | 0.00 | 67 | 1010.2 |
| 20260505085027 | 65 | 259 | 0.0 | 0.9 | 0.00 | 0.01 | 0.00 | 67 | 1010.3 |
| 20260505084027 | 65 | 266 | 0.0 | 0.9 | 0.00 | 0.01 | 0.00 | 67 | 1010.5 |
| 20260505083027 | 65 | 202 | 0.0 | 0.9 | 0.00 | 0.01 | 0.00 | 66 | 1010.5 |
| 20260505082027 | 65 | 193 | 0.0 | 0.9 | 0.00 | 0.01 | 0.00 | 67 | 1010.5 |
| 20260505081027 | 65 | 247 | 0.0 | 0.9 | 0.00 | 0.01 | 0.00 | 67 | 1010.5 |
| 20260505080027 | 64 | 257 | 0.0 | 0.9 | 0.00 | 0.01 | 0.00 | 68 | 1010.5 |
| 20260505075028 | 64 | 271 | 0.0 | 0.9 | 0.00 | 0.01 | 0.00 | 66 | 1010.4 |
| 20260505074028 | 64 | 255 | 0.0 | 0.9 | 0.00 | 0.01 | 0.00 | 68 | 1010.4 |
| 20260505073028 | 63 | 255 | 0.0 | 0.0 | 0.00 | 0.01 | 0.00 | 69 | 1010.4 |
| 20260505072028 | 63 | 255 | 0.0 | 0.0 | 0.00 | 0.01 | 0.00 | 70 | 1010.6 |
| 20260505071028 | 62 | 255 | 0.0 | 0.0 | 0.00 | 0.01 | 0.00 | 72 | 1010.6 |
| 20260505070028 | 61 | 255 | 0.0 | 0.0 | 0.00 | 0.01 | 0.00 | 73 | 1010.3 |
| 20260505065028 | 61 | 255 | 0.0 | 0.0 | 0.00 | 0.01 | 0.00 | 74 | 1010.6 |
| 20260505064028 | 60 | 255 | 0.0 | 0.9 | 0.00 | 0.01 | 0.00 | 74 | 1010.6 |
| 20260505063028 | 60 | 243 | 0.0 | 0.9 | 0.00 | 0.01 | 0.00 | 74 | 1010.8 |
| 20260505062028 | 60 | 266 | 0.0 | 0.0 | 0.00 | 0.01 | 0.00 | 75 | 1010.7 |
| 20260505061028 | 60 | 266 | 0.0 | 0.0 | 0.00 | 0.01 | 0.00 | 76 | 1010.9 |
| 20260505060028 | 59 | 250 | 0.0 | 0.9 | 0.00 | 0.01 | 0.00 | 76 | 1011.0 |
| 20260505055028 | 59 | 119 | 0.0 | 0.9 | 0.00 | 0.01 | 0.00 | 76 | 1011.0 |